EHI
15 35 60 65 60 57 50 34 20 16 17 17 14 9 6 5 6 7 6 5 4 3 3 3 3 3 3 3 3 3 3 3 3 3 4 4 4 3 3 3 3 3 3
28 41 59 62 57 56 51 37 20 12 11 11 9 7 4 4 5 5 5 4 3 3 3 3 3 3 3 3 3 3 3 3 3 3 3 4 3 3 3 3 3 3 3
44 44 53 58 56 58 58 47 27 12 7 5 5 4 3 3 3 4 4 3 3 3 3 3 3 3 3 3 3 3 3 3 3 3 3 3 3 3 3 3 3 3 3
47 42 48 60 62 64 67 61 42 21 9 5 3 3 3 3 3 3 3 3 3 3 3 3 3 3 3 3 3 3 3 3 3 3 3 3 3 3 3 3 3 3 3
42 39 48 64 69 70 71 69 56 35 18 9 4 3 3 3 3 3 3 3 3 3 3 3 3 3 3 3 3 3 3 3 3 3 3 3 3 4 4 4 4 3 3
38 36 46 61 67 68 69 68 59 43 26 13 6 4 4 4 4 3 3 3 3 3 3 3 3 3 3 3 3 3 3 3 3 3 3 3 4 6 7 6 5 4 4
33 30 37 50 55 55 54 53 47 36 24 13 7 6 6 5 5 4 4 4 3 3 3 4 4 3 3 3 3 3 3 3 3 3 3 3 5 12 16 12 8 5 4
22 19 22 31 35 33 31 29 26 22 17 10 6 6 6 5 4 4 4 4 4 3 4 5 5 5 5 4 4 3 3 3 3 3 3 3 8 19 27 23 13 7 4
12 10 9 11 14 14 12 11 10 10 9 6 4 4 4 4 3 3 4 4 4 4 5 6 6 8 9 8 5 3 3 3 3 3 3 3 9 22 31 29 20 11 6
9 6 4 3 4 5 5 5 4 4 4 4 3 3 3 3 3 3 3 3 4 6 7 7 10 15 16 12 7 4 3 3 3 3 3 4 9 19 28 30 27 18 10
21 14 8 6 4 4 3 3 3 3 3 3 4 4 4 3 3 4 4 4 6 8 11 14 21 27 27 20 11 6 4 3 3 3 3 3 10 23 32 36 35 28 19
42 34 24 18 12 7 5 4 4 4 4 5 6 7 6 5 4 5 4 5 8 12 17 26 36 42 42 35 21 11 8 5 3 3 2 3 14 32 45 47 46 41 34
61 54 46 37 29 21 14 9 5 5 7 7 8 9 8 6 5 5 4 5 7 13 22 35 45 49 48 41 28 17 12 7 4 2 2 4 15 37 55 59 57 53 49
66 63 57 50 42 33 22 12 6 6 8 8 7 6 6 6 5 4 4 3 5 11 22 33 40 42 40 33 24 16 11 7 4 2 1 4 13 31 53 63 62 58 56
56 53 48 42 34 26 17 9 6 6 6 5 4 5 5 4 4 3 2 2 3 7 13 20 24 26 25 20 15 11 8 5 3 2 2 3 8 19 39 57 59 52 49
36 32 28 23 17 12 8 6 5 5 3 2 3 5 5 5 3 3 2 2 2 2 5 7 11 13 13 11 9 8 6 4 3 2 2 3 5 10 24 43 49 41 35
19 16 13 10 8 6 5 4 3 2 1 1 2 3 4 4 3 3 3 2 1 0 1 2 4 6 7 7 7 7 6 4 2 2 2 3 3 6 15 30 36 29 24
10 8 7 6 5 3 2 2 1 1 0 0 0 0 1 2 2 2 2 2 1 0 0 1 1 2 4 6 6 6 5 3 1 0 1 2 2 4 9 18 23 19 17
4 3 3 3 3 1 1 1 0 0 0 0 0 0 0 1 1 1 1 1 0 0 0 0 0 0 2 4 5 4 4 3 1 0 0 1 2 3 5 10 12 11 9
1 1 1 1 1 0 0 0 0 0 0 0 0 0 0 0 0 0 0 0 0 0 0 0 0 0 0 2 3 3 2 2 1 0 0 0 1 2 3 4 5 5 4
0 0 0 0 0 0 0 0 0 0 0 0 0 0 0 0 0 0 0 0 0 0 0 0 0 0 0 0 1 1 1 1 0 0 0 0 0 1 1 1 1 2 2
0 0 0 0 0 0 0 0 0 0 0 0 0 0 0 0 0 0 0 0 0 0 0 0 0 0 0 0 0 0 0 0 0 0 0 0 0 0 0 0 0 1 2
0 0 0 0 0 0 0 0 0 0 0 0 0 0 0 0 0 0 0 0 0 0 0 0 0 0 0 0 0 0 0 0 0 0 0 0 0 0 0 0 0 1 2
0 0 0 0 0 0 0 0 0 0 0 0 0 0 0 0 0 0 0 0 0 0 0 0 0 0 0 0 0 0 0 0 0 0 0 0 0 0 0 0 0 0 1
0 0 0 0 0 0 0 0 0 0 0 0 0 0 0 0 0 0 0 0 0 0 0 0 0 0 0 0 0 0 0 0 0 0 0 0 0 0 0 0 0 0 0
0 0 0 0 0 0 0 0 0 0 0 0 0 0 0 0 0 0 0 0 0 0 0 0 0 0 0 0 0 0 0 0 0 0 0 0 0 0 0 0 0 0 0
Wind_Speed
9 9 15 16 16 16 16 15 14 15 15 15 15 16 16 16 16 16 15 15 14 13 13 12 11 11 11 12 13 13 14 14 14 15 15 14 13 13 14 15 14 11 16
13 12 15 15 15 15 15 15 14 14 14 14 14 14 14 14 14 14 13 13 13 12 12 11 11 10 10 11 11 12 12 13 13 14 14 12 13 13 14 15 14 10 16
15 11 13 14 15 15 15 14 14 13 13 13 13 13 13 13 12 12 11 11 11 11 11 11 11 10 10 10 10 11 11 11 12 13 12 6 8 13 15 15 15 15 15
15 10 12 15 15 14 14 14 13 13 13 13 12 12 12 12 11 11 11 10 10 10 10 11 11 10 10 9 9 9 9 10 11 12 6 4 6 14 15 15 15 15 15
11 9 12 17 15 15 14 13 13 13 13 13 12 12 12 12 11 11 10 10 9 9 10 10 10 10 10 9 8 8 8 8 8 7 4 4 5 13 16 15 15 15 14
11 9 12 17 16 15 14 13 13 13 12 12 12 12 12 12 11 11 11 10 10 9 10 10 10 10 10 9 8 7 7 7 6 2 4 6 5 13 16 16 15 15 14
12 9 11 16 16 15 14 13 13 12 12 12 11 11 11 11 11 11 11 11 10 10 10 11 11 11 11 10 9 8 7 7 4 2 4 5 6 14 16 16 16 15 15
13 9 10 16 16 15 14 13 12 11 11 10 10 10 9 9 9 9 10 11 11 11 11 11 12 12 12 11 10 10 9 8 5 4 5 7 10 15 17 15 15 15 15
11 8 6 7 9 13 13 12 11 11 10 10 9 9 9 9 9 9 10 10 11 12 12 12 13 13 13 13 12 11 11 10 4 2 4 6 13 17 18 18 16 16 16
8 7 5 5 5 5 6 11 11 11 11 10 10 10 10 10 10 10 9 10 12 13 13 13 14 14 14 13 13 13 12 10 5 4 3 6 15 19 20 20 19 17 16
8 5 5 4 4 4 4 8 9 10 10 9 8 10 9 5 4 6 9 12 14 15 15 15 15 16 14 14 15 14 12 4 4 4 4 9 17 20 21 21 20 19 18
8 6 4 4 3 4 5 4 3 4 4 5 4 5 4 4 5 7 9 15 16 17 17 17 17 16 12 6 10 13 5 5 5 5 6 12 17 22 22 22 21 21 20
8 8 5 3 3 3 2 2 1 2 3 4 5 6 4 4 4 5 3 6 9 12 9 11 12 8 7 6 5 6 6 6 5 6 7 13 17 22 23 22 22 22 21
10 9 6 5 5 5 4 1 0 1 1 2 4 5 4 3 3 3 3 3 4 4 5 6 6 8 8 9 9 9 9 7 6 5 7 14 16 22 24 23 23 23 22
9 8 6 5 5 4 3 1 1 1 0 1 1 2 3 2 2 2 2 2 3 3 4 5 6 8 9 9 10 10 10 10 9 8 6 13 14 19 24 24 24 24 23
7 5 5 5 4 4 3 2 2 2 2 1 1 0 2 2 1 2 2 3 3 3 4 4 6 7 7 8 10 11 10 9 9 9 7 9 14 16 20 23 23 22 22
5 5 4 5 5 5 4 4 3 3 3 2 2 2 1 1 1 1 2 2 3 3 4 4 5 5 7 7 9 11 9 9 9 9 8 6 7 14 19 21 22 22 22
5 5 4 6 6 6 5 5 4 4 4 3 3 2 1 1 1 1 2 3 3 3 3 3 4 5 6 7 7 8 8 8 9 9 7 7 6 7 13 20 21 22 23
5 4 4 5 5 5 5 5 5 4 5 4 4 3 2 2 1 1 2 3 3 3 3 3 3 4 5 5 6 7 7 8 8 9 8 9 8 8 8 14 20 22 23
5 4 4 4 4 4 4 4 4 5 5 5 4 4 3 2 2 1 2 4 3 3 3 3 4 4 4 4 6 6 5 6 6 7 9 8 8 10 11 11 10 14 21
4 4 4 4 3 3 2 2 2 3 3 4 4 6 5 4 4 3 3 3 3 3 4 4 3 4 3 3 2 3 4 6 7 7 6 6 9 10 10 10 8 8 9
5 5 5 5 4 3 2 1 1 1 2 2 3 4 5 6 6 5 4 4 3 3 4 4 3 2 2 2 2 1 2 3 4 7 6 8 9 8 9 12 10 10 8
6 6 5 5 5 3 2 1 2 2 3 3 4 4 5 7 7 6 6 4 3 3 3 4 3 3 3 2 1 1 1 2 2 2 6 8 8 7 8 8 11 11 11
5 5 5 5 4 3 3 2 1 0 2 3 3 3 6 6 7 7 6 4 3 2 2 3 2 2 3 3 2 2 3 2 2 2 2 4 7 8 8 9 10 10 10
4 4 4 4 3 2 2 2 1 1 2 3 3 4 5 5 6 6 6 5 4 2 2 3 2 2 2 3 3 2 3 3 3 2 2 2 2 4 6 8 8 8 9
3 4 4 3 2 2 1 1 2 3 3 3 4 4 4 4 5 6 6 5 4 4 4 4 3 3 3 3 3 3 3 2 2 1 2 2 2 3 4 5 7 8 8
Wind_Direction
151 158 150 144 140 136 133 129 124 119 116 113 112 112 112 113 115 118 122 126 129 132 133 132 129 123 118 116 117 118 118 119 119 118 118 115 115 118 120 116 114 113 118
149 152 147 142 140 138 136 133 130 126 122 120 118 118 118 118 120 122 126 130 133 136 138 138 134 129 125 124 124 126 127 127 126 124 119 113 114 123 124 119 117 122 123
143 145 142 139 138 138 137 136 134 132 129 128 127 127 127 128 130 132 135 138 141 143 145 146 144 140 136 135 135 135 135 135 133 127 117 109 113 123 126 124 124 125 125
139 137 139 137 136 136 136 137 139 139 137 136 137 138 139 140 142 144 147 150 152 153 154 154 154 152 149 148 148 147 147 147 146 139 128 136 125 126 129 129 129 129 128
133 131 141 138 136 134 134 135 139 143 144 145 147 149 151 153 156 159 160 164 165 163 164 164 164 162 161 162 163 164 164 163 165 156 155 156 136 139 138 138 137 135 135
131 131 143 139 138 136 136 139 143 147 150 153 156 159 162 166 170 172 174 176 177 177 176 176 175 172 172 176 181 184 185 184 180 159 150 154 155 151 148 147 145 143 143
134 138 144 143 143 143 144 146 149 153 157 161 165 168 172 176 181 183 184 186 188 190 189 186 185 183 184 187 195 201 204 208 191 166 161 168 175 160 156 155 154 152 151
140 142 146 151 151 152 154 156 157 159 164 168 173 178 184 188 193 197 197 198 200 202 201 197 194 193 193 196 202 211 216 221 216 194 190 184 185 169 162 160 160 160 159
135 136 137 148 154 158 160 162 165 169 174 179 185 190 197 203 208 212 214 214 214 212 210 209 204 201 200 201 206 214 223 228 226 207 214 187 190 178 170 167 167 167 167
125 134 132 136 142 152 164 173 177 181 185 191 196 200 207 213 218 223 224 226 225 222 222 220 213 210 209 209 212 217 225 232 227 210 219 201 195 186 179 175 173 174 175
123 128 136 145 155 161 169 188 188 192 198 203 208 213 215 221 230 237 238 234 234 232 229 227 223 218 215 217 220 223 228 226 221 217 212 213 200 195 187 183 180 179 181
116 122 131 142 162 175 189 182 189 205 207 209 209 219 215 210 223 234 240 243 242 240 236 231 229 224 221 219 225 227 227 222 227 231 219 215 205 202 195 189 187 185 185
100 104 99 91 91 114 133 137 192 220 219 218 219 222 221 218 227 238 236 250 249 247 241 237 233 226 219 216 217 220 225 226 229 235 229 220 208 206 202 195 193 190 188
93 91 82 72 70 70 81 98 160 224 216 216 224 227 219 223 231 239 238 242 244 242 237 232 230 226 223 222 220 223 225 227 228 231 238 236 219 210 207 201 197 195 192
90 87 81 70 67 65 68 41 29 354 337 216 217 220 200 204 229 243 256 255 252 251 246 240 235 233 229 228 226 226 227 228 231 229 236 239 228 216 211 206 201 200 198
92 93 86 66 60 61 53 34 20 15 14 23 16 233 177 179 206 244 264 271 269 261 253 246 242 236 232 231 232 230 231 230 233 231 229 240 236 223 216 208 204 205 205
92 93 97 82 62 53 41 28 22 9 7 357 336 333 316 189 203 246 270 278 276 275 269 259 254 246 241 234 233 231 230 231 233 232 231 229 231 227 219 210 204 205 209
102 92 81 78 66 53 43 30 17 8 4 347 331 323 310 270 235 254 273 276 276 284 280 269 258 252 248 234 231 234 233 228 230 231 230 228 222 222 219 213 210 210 209
130 118 94 77 68 58 45 31 19 11 5 346 332 316 289 275 264 257 270 274 276 277 276 279 274 256 254 244 236 233 230 228 227 231 230 230 223 220 218 218 216 216 214
146 135 117 98 84 75 50 32 22 12 357 347 338 324 315 310 297 281 270 273 274 271 274 271 270 264 255 252 254 247 233 225 219 224 226 228 223 222 220 218 216 221 219
162 148 142 130 118 97 70 53 36 355 340 341 346 349 346 333 318 298 284 281 271 258 260 265 266 269 263 247 252 266 256 235 227 225 221 223 224 222 218 216 211 211 218
180 172 161 152 142 132 133 143 164 252 302 310 326 338 343 335 321 312 288 274 267 262 270 268 259 265 273 238 220 252 284 277 242 227 215 222 225 217 216 216 213 213 214
183 179 167 163 151 146 133 90 24 8 349 345 335 332 330 328 323 315 298 277 264 246 258 264 253 243 257 264 228 213 232 260 281 244 219 219 216 210 212 212 213 214 213
187 174 159 156 156 156 138 119 132 281 288 278 286 303 316 326 331 331 322 308 285 258 263 275 264 245 238 256 261 240 234 243 266 304 294 233 218 214 211 212 213 212 209
163 149 149 149 161 176 172 169 179 256 256 279 307 326 328 327 334 340 339 340 329 306 289 289 292 272 244 234 233 239 247 250 234 233 276 287 256 228 214 208 206 205 205
115 125 140 147 180 210 211 216 220 260 284 313 326 327 322 319 323 335 341 342 336 327 311 301 291 284 272 257 244 229 221 223 228 221 244 248 250 247 221 205 204 202 200